JUPITER 3 (ECHOSTAR 24)

Last updated on Thu Nov 21 2024 00:02:45 GMT+0000 (Coordinated Universal Time)

1 57479U 23108A 24324.10154371 -.00000148 00000+0 00000+0 0 9995 2 57479 0.0123 321.5749 0001351 279.7481 118.6826 1.00271725 4875
UTC large
Height (km)
Speed (km/s)
/
Latitude / Longitude
Inclination (degrees)
Orbital Period (minutes)
Azimuth
Elevation
Range (km)
Doppler Factor

Next 0 passes for location: London (51.5072 / 0.1276)

Sorry there are no passes over London.